| time (UTC) | temp C | wind direction | speed KPH | gust KPH | rain 1hr cm | rain 24hr cm | rain mn cm | humidity % | barometer mb |
| 20260508033633 | 6 | 0.0 | 0.0 | 0.00 | 0.00 | 0.00 | 94 | 1054.5 | |
| 20260508032525 | 6 | 0.0 | 0.0 | 0.00 | 0.00 | 0.00 | 94 | 1054.6 | |
| 20260508031526 | 6 | 0.0 | 0.0 | 0.00 | 0.00 | 0.00 | 94 | 1054.3 | |
| 20260508030602 | 6 | 0.0 | 0.0 | 0.00 | 0.00 | 0.00 | 94 | 1054.6 | |
| 20260508025529 | 6 | 0.0 | 0.0 | 0.00 | 0.00 | 0.00 | 94 | 1054.6 | |
| 20260508024716 | 6 | 0.0 | 0.0 | 0.00 | 0.00 | 0.00 | 94 | 1054.6 | |
| 20260508023602 | 5 | 0.0 | 0.0 | 0.00 | 0.00 | 0.00 | 95 | 1054.2 | |
| 20260508022554 | 5 | 0.0 | 0.0 | 0.00 | 0.00 | 0.00 | 94 | 1054.2 | |
| 20260508021633 | 5 | 0.0 | 0.0 | 0.00 | 0.00 | 0.00 | 94 | 1054.0 | |
| 20260508020641 | 5 | 0.0 | 0.0 | 0.00 | 0.00 | 0.00 | 93 | 1054.0 | |
| 20260508015027 | 5 | 0.0 | 0.0 | 0.00 | 0.00 | 0.00 | 93 | 1054.1 | |
| 20260508014029 | 5 | 0.0 | 0.0 | 0.00 | 0.00 | 0.00 | 93 | 1053.9 | |
| 20260508013027 | 6 | 0.0 | 0.0 | 0.00 | 0.00 | 0.00 | 92 | 1053.9 | |
| 20260508012026 | 6 | 0.0 | 0.0 | 0.00 | 0.00 | 0.00 | 91 | 1053.9 | |
| 20260508011020 | 6 | 0.0 | 0.0 | 0.00 | 0.00 | 0.00 | 92 | 1054.0 | |
| 20260508010058 | 6 | 0.0 | 0.0 | 0.00 | 0.00 | 0.00 | 92 | 1054.1 | |
| 20260508005319 | 6 | 0.0 | 0.0 | 0.00 | 0.00 | 0.00 | 92 | 1054.2 | |
| 20260508004032 | 6 | 0.0 | 0.0 | 0.00 | 0.00 | 0.00 | 93 | 1054.2 | |
| 20260508003027 | 6 | 0.0 | 0.0 | 0.00 | 0.00 | 0.00 | 93 | 1054.3 | |
| 20260508002049 | 6 | 0.0 | 0.0 | 0.00 | 0.00 | 0.00 | 92 | 1054.2 | |
| 20260508001116 | 6 | 0.0 | 0.0 | 0.00 | 0.00 | 0.00 | 92 | 1054.6 | |
| 20260508000028 | 6 | 0.0 | 0.0 | 0.00 | 0.00 | 0.00 | 92 | 1054.6 | |
| 20260507235045 | 6 | 0.0 | 0.0 | 0.00 | 0.00 | 0.00 | 92 | 1054.5 | |
| 20260507234026 | 6 | 0.0 | 0.0 | 0.00 | 0.00 | 0.00 | 91 | 1054.4 | |
| 20260507233052 | 6 | 0.0 | 0.0 | 0.00 | 0.00 | 0.00 | 90 | 1054.6 | |
| 20260507232047 | 6 | 0.0 | 0.0 | 0.00 | 0.00 | 0.00 | 90 | 1054.6 | |
| 20260507231037 | 6 | 0.0 | 0.0 | 0.00 | 0.00 | 0.00 | 89 | 1054.6 | |
| 20260507230024 | 7 | 0.0 | 0.0 | 0.00 | 0.00 | 0.00 | 88 | 1054.6 | |
| 20260507225042 | 7 | 0.0 | 0.0 | 0.00 | 0.00 | 0.00 | 88 | 1054.6 | |
| 20260507224028 | 7 | 0.0 | 0.0 | 0.00 | 0.00 | 0.00 | 87 | 1054.7 | |
| 20260507223152 | 8 | 0.0 | 0.0 | 0.00 | 0.00 | 0.00 | 85 | 1054.9 | |
| 20260507222215 | 8 | 0.0 | 0.0 | 0.00 | 0.00 | 0.00 | 84 | 1054.7 | |
| 20260507221102 | 8 | 0.0 | 0.0 | 0.00 | 0.00 | 0.00 | 83 | 1054.6 | |
| 20260507220027 | 8 | 0.0 | 0.0 | 0.00 | 0.00 | 0.00 | 82 | 1054.6 | |
| 20260507215037 | 8 | 0.0 | 0.0 | 0.00 | 0.00 | 0.00 | 81 | 1054.8 | |
| 20260507214111 | 8 | 0.0 | 0.0 | 0.00 | 0.00 | 0.00 | 80 | 1054.6 | |
| 20260507213247 | 8 | 0.0 | 0.0 | 0.00 | 0.00 | 0.00 | 79 | 1054.7 | |
| 20260507212327 | 8 | 0.0 | 0.0 | 0.00 | 0.00 | 0.00 | 79 | 1054.3 | |
| 20260507211042 | 8 | 0.0 | 0.0 | 0.00 | 0.00 | 0.00 | 79 | 1054.4 | |
| 20260507210039 | 9 | 0.0 | 0.0 | 0.00 | 0.00 | 0.00 | 78 | 1054.3 | |
| 20260507205139 | 9 | 0.0 | 0.0 | 0.00 | 0.00 | 0.00 | 79 | 1054.4 | |
| 20260507204053 | 9 | 0.0 | 0.0 | 0.00 | 0.00 | 0.00 | 77 | 1054.2 | |
| 20260507203028 | 9 | 0.0 | 0.0 | 0.00 | 0.00 | 0.00 | 76 | 1054.3 | |
| 20260507202157 | 10 | 0.0 | 0.0 | 0.00 | 0.00 | 0.00 | 75 | 1054.0 | |
| 20260507201020 | 10 | 0.0 | 0.0 | 0.00 | 0.00 | 0.00 | 74 | 1053.9 | |
| 20260507200046 | 10 | 0.0 | 0.0 | 0.00 | 0.00 | 0.00 | 74 | 1053.8 | |
| 20260507195026 | 10 | 0.0 | 0.0 | 0.00 | 0.00 | 0.00 | 73 | 1053.6 | |
| 20260507193637 | 11 | 0.0 | 0.0 | 0.00 | 0.00 | 0.00 | 71 | 1053.8 | |
| 20260507192646 | 11 | 0.0 | 0.0 | 0.00 | 0.00 | 0.00 | 69 | 1053.6 | |
| 20260507191524 | 11 | 0.0 | 0.0 | 0.00 | 0.00 | 0.00 | 69 | 1053.5 | |
| 20260507190548 | 12 | 0.0 | 0.0 | 0.00 | 0.00 | 0.00 | 67 | 1053.6 | |
| 20260507185539 | 12 | 0.0 | 0.0 | 0.00 | 0.00 | 0.00 | 66 | 1053.5 | |
| 20260507184703 | 12 | 0.0 | 0.0 | 0.00 | 0.00 | 0.00 | 64 | 1053.5 | |
| 20260507183612 | 12 | 0.0 | 0.0 | 0.00 | 0.00 | 0.00 | 63 | 1053.5 | |
| 20260507182612 | 12 | 0.0 | 0.0 | 0.00 | 0.00 | 0.00 | 62 | 1053.2 | |
| 20260507181539 | 13 | 0.0 | 0.0 | 0.00 | 0.00 | 0.00 | 61 | 1053.2 | |
| 20260507180536 | 13 | 0.0 | 0.0 | 0.00 | 0.00 | 0.00 | 61 | 1053.2 | |
| 20260507175527 | 13 | 0.0 | 0.0 | 0.00 | 0.00 | 0.00 | 60 | 1053.2 | |
| 20260507174606 | 13 | 0.0 | 0.0 | 0.00 | 0.00 | 0.00 | 59 | 1053.1 | |
| 20260507173530 | 13 | 0.0 | 0.0 | 0.00 | 0.00 | 0.00 | 58 | 1052.9 | |
| 20260507172531 | 13 | 0.0 | 0.0 | 0.00 | 0.00 | 0.00 | 58 | 1053.0 | |
| 20260507171706 | 13 | 0.0 | 0.0 | 0.00 | 0.00 | 0.00 | 61 | 1053.1 | |
| 20260507170706 | 13 | 0.0 | 0.0 | 0.00 | 0.00 | 0.00 | 61 | 1053.2 | |
| 20260507165653 | 13 | 0.0 | 0.0 | 0.00 | 0.00 | 0.00 | 61 | 1053.2 | |
| 20260507164759 | 13 | 0.0 | 0.0 | 0.00 | 0.00 | 0.00 | 59 | 1053.2 | |
| 20260507163719 | 13 | 0.0 | 0.0 | 0.00 | 0.00 | 0.00 | 59 | 1053.2 | |
| 20260507162606 | 14 | 0.0 | 0.0 | 0.00 | 0.00 | 0.00 | 55 | 1053.2 | |
| 20260507161549 | 14 | 0.0 | 0.0 | 0.00 | 0.00 | 0.00 | 55 | 1053.2 | |
| 20260507160551 | 15 | 0.0 | 0.0 | 0.00 | 0.00 | 0.00 | 54 | 1053.2 | |
| 20260507155530 | 15 | 0.0 | 0.0 | 0.00 | 0.00 | 0.00 | 54 | 1053.2 | |
| 20260507154533 | 15 | 0.0 | 0.0 | 0.00 | 0.00 | 0.00 | 53 | 1053.2 | |
| 20260507153552 | 14 | 0.0 | 0.0 | 0.00 | 0.00 | 0.00 | 55 | 1053.2 | |
| 20260507152533 | 13 | 0.0 | 0.0 | 0.00 | 0.00 | 0.00 | 54 | 1053.3 | |
| 20260507151546 | 13 | 0.0 | 0.0 | 0.00 | 0.00 | 0.00 | 55 | 1053.4 | |
| 20260507150542 | 12 | 0.0 | 0.0 | 0.00 | 0.00 | 0.00 | 58 | 1053.4 | |
| 20260507145538 | 12 | 0.0 | 0.0 | 0.00 | 0.00 | 0.00 | 59 | 1053.3 | |
| 20260507144602 | 12 | 0.0 | 0.0 | 0.00 | 0.00 | 0.00 | 60 | 1053.3 | |
| 20260507143538 | 12 | 0.0 | 0.0 | 0.00 | 0.00 | 0.00 | 59 | 1053.4 | |
| 20260507142558 | 12 | 0.0 | 0.0 | 0.00 | 0.00 | 0.00 | 59 | 1053.6 | |
| 20260507141603 | 13 | 0.0 | 0.0 | 0.00 | 0.00 | 0.00 | 59 | 1053.6 | |
| 20260507140536 | 13 | 0.0 | 0.0 | 0.00 | 0.00 | 0.00 | 59 | 1053.8 | |
| 20260507135601 | 13 | 0.0 | 0.0 | 0.00 | 0.00 | 0.00 | 58 | 1053.7 | |
| 20260507134602 | 13 | 0.0 | 0.0 | 0.00 | 0.00 | 0.00 | 58 | 1053.9 | |
| 20260507133659 | 13 | 0.0 | 0.0 | 0.00 | 0.00 | 0.00 | 58 | 1053.6 | |
| 20260507132656 | 13 | 0.0 | 0.0 | 0.00 | 0.00 | 0.00 | 58 | 1053.8 | |
| 20260507131758 | 13 | 0.0 | 0.0 | 0.00 | 0.00 | 0.00 | 57 | 1053.7 | |
| 20260507130530 | 14 | 0.0 | 0.0 | 0.00 | 0.00 | 0.00 | 54 | 1053.6 | |
| 20260507125535 | 14 | 0.0 | 0.0 | 0.00 | 0.00 | 0.00 | 53 | 1053.6 | |
| 20260507124705 | 14 | 0.0 | 0.0 | 0.00 | 0.00 | 0.00 | 53 | 1053.5 | |
| 20260507123542 | 14 | 0.0 | 0.0 | 0.00 | 0.00 | 0.00 | 51 | 1053.6 | |
| 20260507122801 | 14 | 0.0 | 0.0 | 0.00 | 0.00 | 0.00 | 54 | 1053.8 | |
| 20260507121659 | 14 | 0.0 | 0.0 | 0.00 | 0.00 | 0.00 | 52 | 1053.7 | |
| 20260507120546 | 14 | 0.0 | 0.0 | 0.00 | 0.00 | 0.00 | 51 | 1053.8 | |
| 20260507115523 | 14 | 0.0 | 0.0 | 0.00 | 0.00 | 0.00 | 52 | 1053.9 | |
| 20260507114705 | 14 | 0.0 | 0.0 | 0.00 | 0.00 | 0.00 | 52 | 1053.8 | |
| 20260507113611 | 13 | 0.0 | 3.2 | 0.00 | 0.00 | 0.00 | 53 | 1053.8 | |
| 20260507112530 | 13 | 0.0 | 0.0 | 0.00 | 0.00 | 0.00 | 52 | 1054.0 | |
| 20260507111528 | 13 | 0.0 | 0.0 | 0.00 | 0.00 | 0.00 | 54 | 1053.9 | |
| 20260507110600 | 13 | 0.0 | 0.0 | 0.00 | 0.00 | 0.00 | 54 | 1054.0 | |
| 20260507105612 | 13 | 0.0 | 0.0 | 0.00 | 0.00 | 0.00 | 53 | 1054.1 | |
| 20260507104527 | 13 | 0.0 | 0.0 | 0.00 | 0.00 | 0.00 | 54 | 1054.0 | |
| 20260507103552 | 13 | 0.0 | 0.0 | 0.00 | 0.00 | 0.00 | 55 | 1054.1 | |
| 20260507102639 | 13 | 0.0 | 0.0 | 0.00 | 0.00 | 0.00 | 56 | 1054.2 | |
| 20260507101557 | 13 | 0.0 | 0.0 | 0.00 | 0.00 | 0.00 | 57 | 1054.2 | |
| 20260507100548 | 13 | 0.0 | 0.0 | 0.00 | 0.00 | 0.00 | 55 | 1054.2 | |
| 20260507095536 | 13 | 0.0 | 0.0 | 0.00 | 0.00 | 0.00 | 57 | 1054.2 | |
| 20260507094528 | 13 | 0.0 | 0.0 | 0.00 | 0.00 | 0.00 | 60 | 1054.2 | |
| 20260507093536 | 13 | 0.0 | 0.0 | 0.00 | 0.00 | 0.00 | 61 | 1054.2 | |
| 20260507092552 | 13 | 0.0 | 3.2 | 0.00 | 0.00 | 0.00 | 58 | 1054.2 | |
| 20260507091535 | 13 | 0.0 | 0.0 | 0.00 | 0.00 | 0.00 | 58 | 1054.1 | |
| 20260507090551 | 13 | 0.0 | 0.0 | 0.00 | 0.00 | 0.00 | 59 | 1054.1 | |
| 20260507090058 | 12 | 0.0 | 0.0 | 0.00 | 0.00 | 0.00 | 58 | 1054.3 | |
| 20260507084524 | 12 | 0.0 | 0.0 | 0.00 | 0.00 | 0.00 | 62 | 1054.4 | |
| 20260507083522 | 12 | 0.0 | 0.0 | 0.00 | 0.00 | 0.00 | 63 | 1054.6 | |
| 20260507082539 | 12 | 0.0 | 0.0 | 0.00 | 0.00 | 0.00 | 64 | 1054.2 | |
| 20260507081648 | 12 | 0.0 | 0.0 | 0.00 | 0.00 | 0.00 | 65 | 1054.4 | |
| 20260507080611 | 11 | 0.0 | 0.0 | 0.00 | 0.00 | 0.00 | 65 | 1054.2 | |
| 20260507075529 | 11 | 0.0 | 0.0 | 0.00 | 0.00 | 0.00 | 66 | 1054.3 | |
| 20260507074557 | 11 | 0.0 | 0.0 | 0.00 | 0.00 | 0.00 | 69 | 1054.2 | |
| 20260507073543 | 11 | 0.0 | 0.0 | 0.00 | 0.00 | 0.00 | 69 | 1054.4 | |
| 20260507072539 | 10 | 0.0 | 0.0 | 0.00 | 0.00 | 0.00 | 69 | 1054.1 | |
| 20260507071528 | 10 | 0.0 | 0.0 | 0.00 | 0.00 | 0.00 | 71 | 1054.2 | |
| 20260507070529 | 10 | 0.0 | 0.0 | 0.00 | 0.00 | 0.00 | 70 | 1054.2 | |
| 20260507065537 | 10 | 0.0 | 0.0 | 0.00 | 0.00 | 0.00 | 72 | 1053.9 | |
| 20260507064526 | 10 | 0.0 | 0.0 | 0.00 | 0.00 | 0.00 | 71 | 1053.9 | |
| 20260507063602 | 9 | 0.0 | 0.0 | 0.00 | 0.00 | 0.00 | 77 | 1054.1 | |
| 20260507062601 | 9 | 0.0 | 0.0 | 0.00 | 0.00 | 0.00 | 77 | 1054.2 | |
| 20260507061041 | 7 | 0.0 | 0.0 | 0.00 | 0.00 | 0.00 | 87 | 1053.9 | |
| 20260507060047 | 6 | 0.0 | 0.0 | 0.00 | 0.00 | 0.00 | 93 | 1054.0 | |
| 20260507055048 | 6 | 0.0 | 0.0 | 0.00 | 0.00 | 0.00 | 94 | 1053.9 | |
| 20260507054052 | 6 | 0.0 | 0.0 | 0.00 | 0.00 | 0.00 | 94 | 1053.9 | |
| 20260507053116 | 5 | 0.0 | 0.0 | 0.00 | 0.00 | 0.00 | 94 | 1053.9 | |
| 20260507052047 | 5 | 0.0 | 0.0 | 0.00 | 0.00 | 0.00 | 94 | 1053.9 | |
| 20260507051034 | 5 | 0.0 | 0.0 | 0.00 | 0.00 | 0.00 | 94 | 1053.8 | |
| 20260507050057 | 5 | 0.0 | 0.0 | 0.00 | 0.00 | 0.00 | 94 | 1053.8 | |
| 20260507045037 | 5 | 0.0 | 0.0 | 0.00 | 0.00 | 0.00 | 94 | 1053.6 | |
| 20260507044059 | 5 | 0.0 | 0.0 | 0.00 | 0.00 | 0.00 | 94 | 1053.5 | |
| 20260507043218 | 5 | 0.0 | 0.0 | 0.00 | 0.00 | 0.00 | 94 | 1053.5 | |
| 20260507042021 | 5 | 0.0 | 0.0 | 0.00 | 0.00 | 0.00 | 93 | 1053.3 | |
| 20260507041159 | 5 | 0.0 | 0.0 | 0.00 | 0.00 | 0.00 | 93 | 1053.5 | |
| 20260507040041 | 5 | 0.0 | 0.0 | 0.00 | 0.00 | 0.00 | 92 | 1053.2 | |
| 20260507035056 | 5 | 0.0 | 0.0 | 0.00 | 0.00 | 0.00 | 92 | 1053.1 | |
| 20260507034201 | 6 | 0.0 | 0.0 | 0.00 | 0.00 | 0.00 | 92 | 1053.2 |